When you browse on this site, cookies collect data to enhance your experience and personalize the content and advertising you see.
Visit our Privacy Policy to learn more. By continuing to use the site, you agree to this use of cookies and data.
  • In Latvia
  • List of Countries
  • For 7 days
  • Water Temperature
  • Weather Map
  • Weather Widgets
  • user-avatar
    Login

    Hourly Weather Kanavka

    Today, 20 August, Tuesday

    Time Temperature Precipitation Wind Pressure Humidity
    00:00 +30°C° 0 mm 4 mps 761 mmHg 26%
    01:00 +29°C° 0 mm 4 mps 761 mmHg 27%
    02:00 +29°C° 0 mm 3 mps 761 mmHg 29%
    03:00 +28°C° 0 mm 3 mps 761 mmHg 31%
    04:00 +28°C° 0 mm 2 mps 762 mmHg 32%
    05:00 +28°C° 0 mm 2 mps 762 mmHg 33%
    06:00 +28°C° 0 mm 2 mps 762 mmHg 33%
    07:00 +30°C° 0 mm 2 mps 762 mmHg 29%
    08:00 +33°C° 0 mm 3 mps 762 mmHg 26%
    09:00 +35°C° 0 mm 3 mps 762 mmHg 21%
    10:00 +36°C° 0 mm 4 mps 762 mmHg 19%
    11:00 +38°C° 0 mm 4 mps 762 mmHg 16%
    12:00 +40°C° 0 mm 5 mps 761 mmHg 13%
    13:00 +40°C° 0 mm 4 mps 761 mmHg 13%
    14:00 +41°C° 0 mm 4 mps 761 mmHg 12%
    15:00 +41°C° 0 mm 4 mps 760 mmHg 12%
    16:00 +39°C° 0 mm 3 mps 760 mmHg 14%
    17:00 +38°C° 0 mm 2 mps 760 mmHg 16%
    18:00 +36°C° 0 mm 1 mps 760 mmHg 18%
    19:00 +34°C° 0 mm 1 mps 760 mmHg 19%
    20:00 +32°C° 0 mm 1 mps 760 mmHg 20%
    21:00 +30°C° 0 mm 1 mps 760 mmHg 22%
    22:00 +30°C° 0 mm 1 mps 760 mmHg 22%
    23:00 +29°C° 0 mm 2 mps 760 mmHg 23%

    Tomorrow, 21 August, Wednesday

    Time Temperature Precipitation Wind Pressure Humidity
    00:00 +29°C° 0 mm 2 mps 760 mmHg 23%
    01:00 +28°C° 0 mm 2 mps 760 mmHg 24%
    02:00 +28°C° 0 mm 2 mps 760 mmHg 25%
    03:00 +27°C° 0 mm 2 mps 760 mmHg 25%
    04:00 +27°C° 0 mm 3 mps 760 mmHg 30%
    05:00 +26°C° 0 mm 4 mps 760 mmHg 34%
    06:00 +26°C° 0 mm 4 mps 759 mmHg 38%
    07:00 +27°C° 0 mm 5 mps 760 mmHg 39%
    08:00 +29°C° 0 mm 5 mps 760 mmHg 39%
    09:00 +32°C° 0 mm 6 mps 760 mmHg 40%
    10:00 +33°C° 0 mm 6 mps 760 mmHg 38%
    11:00 +34°C° 0 mm 6 mps 760 mmHg 36%
    12:00 +36°C° 0 mm 6 mps 760 mmHg 35%
    13:00 +36°C° 0 mm 6 mps 760 mmHg 34%
    14:00 +36°C° 0 mm 6 mps 759 mmHg 33%
    15:00 +36°C° 0 mm 6 mps 759 mmHg 32%
    16:00 +35°C° 0 mm 6 mps 759 mmHg 34%
    17:00 +35°C° 0 mm 7 mps 759 mmHg 35%
    18:00 +34°C° 0 mm 7 mps 759 mmHg 37%
    19:00 +32°C° 0 mm 7 mps 760 mmHg 41%
    20:00 +30°C° 0 mm 6 mps 760 mmHg 45%
    21:00 +28°C° 0 mm 6 mps 760 mmHg 49%
    22:00 +28°C° 0 mm 6 mps 760 mmHg 52%
    23:00 +27°C° 0 mm 6 mps 760 mmHg 55%

    Day after tomorrow, 22 August, Thursday

    Time Temperature Precipitation Wind Pressure Humidity
    00:00 +26°C° 0 mm 6 mps 760 mmHg 58%
    01:00 +26°C° 0 mm 6 mps 761 mmHg 62%
    02:00 +24°C° 0 mm 6 mps 761 mmHg 66%
    03:00 +23°C° 0 mm 6 mps 761 mmHg 70%
    04:00 +23°C° 0 mm 6 mps 761 mmHg 70%
    05:00 +22°C° 0 mm 6 mps 761 mmHg 71%
    06:00 +22°C° 0 mm 6 mps 761 mmHg 71%
    07:00 +24°C° 0 mm 6 mps 761 mmHg 65%
    08:00 +26°C° 0 mm 6 mps 761 mmHg 58%
    09:00 +28°C° 0 mm 5 mps 761 mmHg 51%
    10:00 +29°C° 0 mm 5 mps 761 mmHg 45%
    11:00 +32°C° 0 mm 5 mps 761 mmHg 39%
    12:00 +33°C° 0 mm 5 mps 761 mmHg 32%
    13:00 +34°C° 0 mm 5 mps 760 mmHg 30%
    14:00 +35°C° 0 mm 4 mps 760 mmHg 28%
    15:00 +35°C° 0 mm 4 mps 760 mmHg 26%
    16:00 +35°C° 0 mm 3 mps 760 mmHg 27%
    17:00 +34°C° 0 mm 3 mps 760 mmHg 28%
    18:00 +34°C° 0 mm 2 mps 759 mmHg 30%
    19:00 +31°C° 0 mm 3 mps 760 mmHg 32%
    20:00 +30°C° 0 mm 3 mps 760 mmHg 34%
    21:00 +29°C° 0 mm 4 mps 760 mmHg 36%
    22:00 +28°C° 0 mm 4 mps 760 mmHg 38%
    23:00 +27°C° 0 mm 3 mps 760 mmHg 40%

    23 August, Friday

    Time Temperature Precipitation Wind Pressure Humidity
    00:00 +26°C° 0 mm 3 mps 760 mmHg 42%
    01:00 +26°C° 0 mm 3 mps 760 mmHg 44%
    02:00 +25°C° 0 mm 3 mps 760 mmHg 45%
    03:00 +25°C° 0 mm 3 mps 761 mmHg 47%
    04:00 +25°C° 0 mm 3 mps 760 mmHg 46%
    05:00 +25°C° 0 mm 3 mps 760 mmHg 46%
    06:00 +25°C° 0 mm 3 mps 760 mmHg 45%
    07:00 +27°C° 0 mm 3 mps 760 mmHg 40%
    08:00 +29°C° 0 mm 3 mps 761 mmHg 35%
    09:00 +31°C° 0 mm 3 mps 761 mmHg 29%
    10:00 +34°C° 0 mm 3 mps 760 mmHg 27%
    11:00 +35°C° 0 mm 3 mps 760 mmHg 25%
    12:00 +37°C° 0 mm 3 mps 760 mmHg 23%
    13:00 +37°C° 0 mm 3 mps 760 mmHg 22%
    14:00 +38°C° 0 mm 3 mps 759 mmHg 21%
    15:00 +39°C° 0 mm 2 mps 759 mmHg 20%
    16:00 +38°C° 0 mm 3 mps 759 mmHg 21%
    17:00 +37°C° 0 mm 3 mps 759 mmHg 22%
    18:00 +36°C° 0 mm 4 mps 759 mmHg 23%
    19:00 +34°C° 0.5 mm 3 mps 759 mmHg 30%
    20:00 +31°C° 0.5 mm 3 mps 760 mmHg 36%
    21:00 +29°C° 0.5 mm 3 mps 760 mmHg 42%
    22:00 +29°C° 0.3 mm 3 mps 760 mmHg 44%
    23:00 +28°C° 0.3 mm 3 mps 760 mmHg 46%

    24 August, Saturday

    Time Temperature Precipitation Wind Pressure Humidity
    00:00 +28°C° 0.3 mm 3 mps 760 mmHg 48%
    01:00 +27°C° 0.1 mm 3 mps 760 mmHg 47%
    02:00 +27°C° 0.1 mm 4 mps 760 mmHg 47%
    03:00 +27°C° 0.1 mm 4 mps 760 mmHg 46%
    04:00 +27°C° 0.1 mm 3 mps 760 mmHg 47%
    05:00 +26°C° 0.1 mm 3 mps 760 mmHg 48%
    06:00 +26°C° 0.1 mm 2 mps 760 mmHg 49%
    07:00 +28°C° 0 mm 2 mps 760 mmHg 43%
    08:00 +30°C° 0 mm 2 mps 760 mmHg 38%
    09:00 +31°C° 0 mm 2 mps 760 mmHg 33%
    10:00 +33°C° 0 mm 1 mps 760 mmHg 29%
    11:00 +34°C° 0 mm 1 mps 760 mmHg 26%
    12:00 +35°C° 0 mm 1 mps 760 mmHg 23%
    13:00 +36°C° 0 mm 1 mps 760 mmHg 22%
    14:00 +36°C° 0 mm 1 mps 759 mmHg 21%
    15:00 +37°C° 0 mm 1 mps 759 mmHg 20%
    16:00 +37°C° 0 mm 2 mps 759 mmHg 23%
    17:00 +36°C° 0 mm 3 mps 759 mmHg 26%
    18:00 +35°C° 0 mm 4 mps 759 mmHg 28%
    19:00 +33°C° 0 mm 5 mps 759 mmHg 34%
    20:00 +30°C° 0 mm 6 mps 760 mmHg 40%
    21:00 +29°C° 0 mm 7 mps 760 mmHg 46%
    22:00 +28°C° 0 mm 7 mps 760 mmHg 50%
    23:00 +27°C° 0 mm 7 mps 760 mmHg 54%

    25 August, Sunday

    Time Temperature Precipitation Wind Pressure Humidity
    00:00 +26°C° 0 mm 7 mps 761 mmHg 58%
    01:00 +24°C° 0.1 mm 6 mps 761 mmHg 62%
    02:00 +23°C° 0.1 mm 6 mps 761 mmHg 66%
    03:00 +23°C° 0.1 mm 6 mps 761 mmHg 70%
    04:00 +22°C° 0.1 mm 6 mps 761 mmHg 70%
    05:00 +22°C° 0.1 mm 6 mps 761 mmHg 69%
    06:00 +22°C° 0.1 mm 6 mps 761 mmHg 69%
    07:00 +23°C° 0.2 mm 5 mps 761 mmHg 63%
    08:00 +26°C° 0.2 mm 5 mps 761 mmHg 57%
    09:00 +27°C° 0.2 mm 5 mps 761 mmHg 51%
    10:00 +29°C° 0.1 mm 4 mps 761 mmHg 46%
    11:00 +30°C° 0.1 mm 3 mps 761 mmHg 41%
    12:00 +32°C° 0.1 mm 2 mps 760 mmHg 36%
    13:00 +32°C° 0 mm 2 mps 760 mmHg 34%
    14:00 +33°C° 0 mm 1 mps 760 mmHg 32%
    15:00 +34°C° 0 mm 1 mps 759 mmHg 30%
    16:00 +33°C° 0 mm 1 mps 759 mmHg 32%
    17:00 +33°C° 0 mm 1 mps 759 mmHg 34%
    18:00 +33°C° 0 mm 1 mps 759 mmHg 35%
    19:00 +31°C° 0 mm 2 mps 759 mmHg 39%
    20:00 +30°C° 0 mm 3 mps 759 mmHg 43%
    21:00 +28°C° 0 mm 4 mps 759 mmHg 46%
    22:00 +27°C° 0 mm 4 mps 759 mmHg 48%
    23:00 +26°C° 0 mm 5 mps 759 mmHg 50%
    Show more